TimeCDT,TemperatureF,Dew PointF,Humidity,Sea Level PressureIn,VisibilityMPH,Wind Direction,Wind SpeedMPH,Gust SpeedMPH,PrecipitationIn,Events,Conditions,WindDirDegrees,DateUTC
12:15 AM,33.8,21.2,60,29.97,10.0,Calm,Calm,-,N/A,,Clear,0,2012-10-02 05:15:00
12:35 AM,33.8,24.8,70,29.96,10.0,Calm,Calm,-,N/A,,Clear,0,2012-10-02 05:35:00
12:55 AM,33.8,24.8,70,29.95,10.0,Calm,Calm,-,N/A,,Clear,0,2012-10-02 05:55:00
1:55 AM,35.6,24.8,65,29.95,10.0,Calm,Calm,-,N/A,,Clear,0,2012-10-02 06:55:00
2:16 AM,35.6,21.2,56,29.95,10.0,Calm,Calm,-,N/A,,Clear,0,2012-10-02 07:16:00
2:35 AM,37.4,21.2,52,29.94,10.0,Calm,Calm,-,N/A,,Clear,0,2012-10-02 07:35:00
2:55 AM,37.4,26.6,65,29.93,10.0,SSE,5.8,-,N/A,,Clear,160,2012-10-02 07:55:00
3:15 AM,37.4,26.6,65,29.93,10.0,Calm,Calm,-,N/A,,Clear,0,2012-10-02 08:15:00
3:35 AM,39.2,28.4,65,29.93,10.0,Calm,Calm,-,N/A,,Clear,0,2012-10-02 08:35:00
3:56 AM,37.4,24.8,60,29.92,10.0,SE,3.5,-,N/A,,Clear,140,2012-10-02 08:56:00
4:15 AM,37.4,23.0,56,29.92,10.0,SE,4.6,-,N/A,,Clear,140,2012-10-02 09:15:00
4:35 AM,41.0,30.2,65,29.91,10.0,SSE,6.9,-,N/A,,Clear,150,2012-10-02 09:35:00
4:55 AM,44.6,32.0,61,29.91,10.0,SSE,6.9,-,N/A,,Clear,150,2012-10-02 09:55:00
5:15 AM,44.6,30.2,57,29.90,10.0,Calm,Calm,-,N/A,,Clear,0,2012-10-02 10:15:00
5:35 AM,44.6,28.4,53,29.90,10.0,SSE,5.8,-,N/A,,Clear,160,2012-10-02 10:35:00
5:55 AM,44.6,28.4,53,29.90,10.0,SSE,9.2,-,N/A,,Clear,160,2012-10-02 10:55:00
6:15 AM,44.6,28.4,53,29.89,10.0,SSE,11.5,-,N/A,,Clear,160,2012-10-02 11:15:00
6:35 AM,46.4,28.4,50,29.89,10.0,SSE,9.2,-,N/A,,Clear,160,2012-10-02 11:35:00
6:55 AM,46.4,28.4,50,29.89,10.0,SSE,10.4,-,N/A,,Clear,160,2012-10-02 11:55:00
7:15 AM,46.4,28.4,50,29.88,10.0,SSE,11.5,-,N/A,,Clear,160,2012-10-02 12:15:00
7:35 AM,46.4,28.4,50,29.88,10.0,SSE,10.4,-,N/A,,Clear,160,2012-10-02 12:35:00
7:55 AM,46.4,30.2,53,29.88,10.0,Calm,Calm,-,N/A,,Clear,0,2012-10-02 12:55:00
8:15 AM,48.2,30.2,50,29.87,10.0,SSE,10.4,-,N/A,,Clear,160,2012-10-02 13:15:00
8:35 AM,51.8,30.2,44,29.86,10.0,SSE,15.0,20.7,N/A,,Clear,160,2012-10-02 13:35:00
8:56 AM,51.8,30.2,44,29.86,10.0,South,16.1,19.6,N/A,,Clear,170,2012-10-02 13:56:00
9:15 AM,53.6,30.2,41,29.86,10.0,South,19.6,-,N/A,,Clear,170,2012-10-02 14:15:00
9:35 AM,55.4,30.2,38,29.85,10.0,South,17.3,-,N/A,,Clear,180,2012-10-02 14:35:00
9:56 AM,57.2,30.2,36,29.84,10.0,South,19.6,27.6,N/A,,Clear,180,2012-10-02 14:56:00
10:15 AM,59.0,30.2,34,29.83,10.0,South,18.4,26.5,N/A,,Clear,180,2012-10-02 15:15:00
10:35 AM,60.8,28.4,29,29.82,10.0,South,24.2,33.4,N/A,,Clear,180,2012-10-02 15:35:00
10:56 AM,62.6,28.4,27,29.81,10.0,South,25.3,33.4,N/A,,Clear,180,2012-10-02 15:56:00
11:15 AM,62.6,28.4,27,29.80,10.0,South,23.0,34.5,N/A,,Clear,180,2012-10-02 16:15:00
11:35 AM,64.4,28.4,26,29.78,10.0,South,27.6,34.5,N/A,,Clear,180,2012-10-02 16:35:00
11:55 AM,64.4,28.4,26,29.77,10.0,South,28.8,38.0,N/A,,Clear,180,2012-10-02 16:55:00
12:15 PM,64.4,26.6,24,29.77,10.0,South,28.8,40.3,N/A,,Clear,190,2012-10-02 17:15:00
12:35 PM,66.2,26.6,23,29.76,10.0,South,28.8,39.1,N/A,,Clear,190,2012-10-02 17:35:00
12:55 PM,66.2,26.6,23,29.76,10.0,South,29.9,39.1,N/A,,Clear,190,2012-10-02 17:55:00
1:15 PM,66.2,28.4,24,29.75,10.0,South,28.8,40.3,N/A,,Clear,180,2012-10-02 18:15:00
1:35 PM,66.2,26.6,23,29.74,10.0,South,29.9,39.1,N/A,,Clear,170,2012-10-02 18:35:00
1:55 PM,68.0,26.6,21,29.72,10.0,South,28.8,38.0,N/A,,Clear,180,2012-10-02 18:55:00
2:15 PM,68.0,26.6,21,29.72,10.0,South,29.9,38.0,N/A,,Clear,190,2012-10-02 19:15:00
2:35 PM,69.8,26.6,20,29.71,10.0,South,27.6,36.8,N/A,,Clear,180,2012-10-02 19:35:00
2:55 PM,69.8,26.6,20,29.70,10.0,South,28.8,41.4,N/A,,Clear,180,2012-10-02 19:55:00
3:15 PM,69.8,24.8,18,29.71,10.0,South,29.9,36.8,N/A,,Clear,190,2012-10-02 20:15:00
3:35 PM,71.6,24.8,17,29.70,10.0,South,31.1,36.8,N/A,,Clear,190,2012-10-02 20:35:00
3:55 PM,71.6,24.8,17,29.70,10.0,South,23.0,36.8,N/A,,Clear,190,2012-10-02 20:55:00
4:15 PM,71.6,24.8,17,29.70,10.0,SSW,27.6,39.1,N/A,,Clear,200,2012-10-02 21:15:00
4:35 PM,71.6,24.8,17,29.70,10.0,South,27.6,34.5,N/A,,Clear,190,2012-10-02 21:35:00
4:55 PM,71.6,24.8,17,29.70,10.0,South,26.5,33.4,N/A,,Clear,190,2012-10-02 21:55:00
5:15 PM,71.6,23.0,16,29.70,10.0,SSW,25.3,29.9,N/A,,Clear,200,2012-10-02 22:15:00
5:35 PM,71.6,24.8,17,29.71,10.0,SSW,24.2,28.8,N/A,,Clear,200,2012-10-02 22:35:00
6:15 PM,69.8,24.8,18,29.71,10.0,South,18.4,24.2,N/A,,Clear,190,2012-10-02 23:15:00
6:35 PM,66.2,24.8,21,29.71,10.0,South,13.8,-,N/A,,Clear,180,2012-10-02 23:35:00
7:15 PM,62.6,24.8,24,29.72,10.0,South,13.8,-,N/A,,Clear,180,2012-10-03 00:15:00
7:35 PM,62.6,24.8,24,29.72,10.0,South,11.5,-,N/A,,Clear,180,2012-10-03 00:35:00
7:56 PM,60.8,24.8,25,29.73,10.0,South,10.4,-,N/A,,Clear,180,2012-10-03 00:56:00
8:15 PM,57.2,24.8,29,29.74,10.0,South,9.2,-,N/A,,Clear,180,2012-10-03 01:15:00
8:35 PM,57.2,24.8,29,29.74,10.0,South,8.1,-,N/A,,Clear,170,2012-10-03 01:35:00
8:56 PM,53.6,26.6,35,29.77,10.0,WNW,11.5,17.3,N/A,,Clear,290,2012-10-03 01:56:00
9:15 PM,57.2,24.8,29,29.77,10.0,WSW,11.5,-,N/A,,Clear,250,2012-10-03 02:15:00
9:35 PM,57.2,24.8,29,29.77,10.0,South,11.5,-,N/A,,Clear,190,2012-10-03 02:35:00
9:56 PM,57.2,24.8,29,29.77,10.0,South,10.4,-,N/A,,Clear,180,2012-10-03 02:56:00
10:15 PM,53.6,24.8,33,29.78,10.0,South,4.6,9.2,N/A,,Clear,180,2012-10-03 03:15:00
10:35 PM,51.8,24.8,35,29.78,10.0,South,8.1,-,N/A,,Clear,170,2012-10-03 03:35:00
10:56 PM,51.8,24.8,35,29.78,10.0,SSE,6.9,-,N/A,,Clear,160,2012-10-03 03:56:00
11:15 PM,51.8,24.8,35,29.79,10.0,South,8.1,-,N/A,,Clear,170,2012-10-03 04:15:00
11:35 PM,48.2,24.8,40,29.79,10.0,South,8.1,-,N/A,,Clear,180,2012-10-03 04:35:00
11:56 PM,48.2,24.8,40,29.80,10.0,South,5.8,-,N/A,,Clear,190,2012-10-03 04:56:00